Preview of NWS' New Version of Forecast
This preview is not operational and should not be used for support decisions.

Regional Weather Roundup (RWR)

Issued by National Weather Service (NWS)

                            
000
ASCA42 TJSJ 161410
RWRPR 
PUERTO RICO/U.S. VIRGIN ISLANDS HOURLY WEATHER ROUNDUP
NATIONAL WEATHER SERVICE SAN JUAN PR
1000 AM AST SUN JUN 16 2019

PRZ001>002-007>008-010-161500-
PUERTO RICO
  
CITY           SKY/WX    TMP DP  RH WIND       PRES   REMARKS
SAN JUAN LMM   MOSUNNY   84  73  70 E16       30.07F HX  91           
AGUADILLA      PTSUNNY   84  75  74 E14G20    30.08S HX  92           
CEIBA          CLOUDY    88  75  66 NE9       30.08F HX  97           
$$

VIZ001>002-161500-
U.S. VIRGIN ISLANDS
  
CITY           SKY/WX    TMP DP  RH WIND       PRES   REMARKS
CHARLOTTE AMA  MOSUNNY   90  72  55 E16       30.06S HX  96           
CHRISTIANSTED  PTSUNNY   82  73  74 E24       30.07R                  
$$

HOURLY WEATHER ROUNDUP FOR THE NEWS MEDIA
  
CITY           SKY/WX    TMP DP  RH WIND       PRES   REMARKS
ORLANDO        FAIR      84  74  71 SE7       30.07R HX  91           
NEW YORK       PTSUNNY   70  66  87 S10       29.91F                  
NEWARK         PTSUNNY   77  63  61 SW9       29.88F                  
CHICAGO        FOG       58  58 100 N8        29.80R VSB 3/4          
HARTFORD       CLOUDY    65  62  90 S13       29.92F                  
BOSTON         CLOUDY    71  61  70 S8        29.88F                  
DALLAS         CLOUDY    69  66  90 SE9       29.92R                  
PHILADELPHIA   PTSUNNY   73  60  63 SW15      29.89F                  
LOS ANGELES    CLOUDY    64  58  80 VRB5      29.88S                  
WASHINGTON DC  PTSUNNY   73  60  63 S12       29.90F